RH
19 14 9 7 19 28 23 15 15 15 12 14 11 9 8 5 4 3 4 4 6 6 5 6 7 10 7 9 28 45 47 47 52 53 62 67 64 76 80 76 80 76 73 73 65 57 57 57 57 53 49 49 49 50 53 62 71 74 74 71 66 61 60 62 65 68 63 55 50 42 36 39 51 60 58 57 57 54 58 60 53 48 46 41 39 39 37 34 28 18 12 14 12 13 13 14 14
15 13 11 17 28 28 20 14 15 15 12 12 9 8 7 5 4 3 3 4 10 12 9 9 9 11 10 9 24 43 51 53 54 59 61 61 69 80 85 85 79 75 75 72 63 57 58 59 59 55 52 52 50 50 53 63 72 75 74 71 66 62 62 65 69 71 61 49 43 38 35 40 51 64 64 61 59 51 51 61 65 68 63 45 35 32 32 34 31 18 13 15 12 13 12 12 13
22 27 24 24 24 22 19 15 14 14 14 13 9 6 5 5 4 3 3 4 11 15 12 14 13 12 14 13 26 46 55 55 55 59 60 62 71 79 87 89 78 74 78 71 61 58 59 61 61 57 55 53 51 51 53 63 71 74 75 72 66 62 63 67 71 71 55 37 30 30 33 40 50 62 67 64 59 51 45 53 61 63 58 41 29 27 26 30 32 21 15 14 13 12 12 13 12
33 38 32 20 13 18 20 18 16 13 13 12 8 5 4 4 3 3 5 9 13 15 13 14 14 17 28 32 36 48 55 57 56 56 60 64 69 80 87 90 82 77 79 69 61 59 58 62 62 59 56 55 53 52 54 60 66 70 71 67 63 63 65 68 73 66 44 27 22 22 26 31 39 52 60 58 54 50 43 42 45 44 38 30 24 22 22 25 29 22 15 14 13 13 12 13 13
32 36 32 16 10 15 16 17 16 13 12 10 8 5 2 3 4 4 8 13 14 14 11 12 16 21 39 49 46 51 57 60 62 60 63 66 73 84 86 92 91 82 79 69 63 60 59 63 63 61 58 56 56 54 55 57 60 63 63 62 62 64 66 70 72 56 33 26 24 21 21 20 24 34 39 42 46 46 40 32 34 36 31 28 26 20 17 23 27 23 17 13 12 13 12 12 14
26 30 27 15 13 14 16 15 12 13 10 7 7 3 3 3 4 5 7 9 12 13 11 13 16 22 44 58 59 63 62 62 67 66 66 70 78 83 85 92 93 88 83 73 66 62 60 62 64 63 60 58 58 56 57 56 58 58 59 60 60 64 68 69 63 42 29 32 31 26 24 21 21 25 29 33 41 44 39 37 41 44 40 36 34 25 19 22 26 27 21 14 13 13 13 13 13
19 22 18 14 15 16 20 17 10 10 7 5 5 3 3 3 4 4 5 6 8 11 12 14 16 27 46 54 63 70 67 65 69 70 69 74 80 80 85 90 91 92 88 78 70 66 63 63 65 66 63 60 58 58 58 57 57 57 57 58 60 65 65 58 47 34 32 38 37 33 29 26 25 28 34 36 39 45 47 53 58 59 55 49 45 36 27 24 25 29 24 17 16 14 13 13 13
17 18 12 11 12 14 17 16 10 7 5 5 3 3 4 3 5 3 4 4 5 8 10 15 16 28 44 51 65 73 71 70 72 76 74 75 80 82 87 90 91 92 92 88 77 71 68 67 68 68 65 60 58 59 59 58 57 57 56 58 60 61 56 47 40 36 39 42 40 37 33 31 32 34 40 40 42 50 57 64 69 70 65 59 56 49 40 34 29 25 21 22 21 16 14 13 14
16 17 11 9 8 10 11 10 8 6 5 4 3 4 4 4 5 4 4 3 5 7 8 14 14 29 51 61 71 75 77 78 77 80 78 79 82 85 89 91 92 93 97 96 84 75 72 71 71 70 67 61 59 59 59 59 58 57 57 57 58 55 50 45 43 42 46 51 50 47 43 40 38 39 43 46 52 60 64 65 70 71 61 56 57 50 45 43 38 27 23 27 24 18 17 15 16
14 15 12 10 8 8 7 7 5 4 4 3 3 3 4 4 4 4 4 3 4 5 8 13 12 29 55 65 74 81 83 81 79 84 84 84 85 87 91 92 93 95 97 94 84 75 73 74 72 71 68 63 61 60 60 59 59 58 58 57 55 52 50 50 47 48 59 66 67 67 61 51 46 44 45 49 53 59 63 61 61 60 49 44 46 41 37 38 38 33 30 32 27 21 19 17 18
11 11 11 13 12 9 7 7 5 4 3 2 2 2 4 4 5 4 3 4 3 4 6 11 17 37 59 69 80 87 85 79 80 89 88 87 90 91 92 95 96 95 94 91 85 75 72 74 72 71 68 65 61 60 60 60 60 59 59 58 55 54 53 51 48 56 73 77 79 82 72 61 58 56 51 50 49 49 52 51 49 47 41 37 37 36 34 31 32 35 37 37 30 25 21 19 20
9 9 11 14 13 9 6 6 5 5 2 2 2 2 4 4 5 5 4 4 3 5 3 9 27 45 58 70 84 88 88 84 84 91 90 90 94 94 93 95 96 92 93 91 84 75 71 72 72 70 67 64 61 60 61 61 61 61 61 57 55 56 54 51 55 69 80 83 86 83 76 71 70 67 60 56 54 50 47 44 42 40 36 35 34 34 34 31 31 34 37 37 33 28 24 21 19
10 8 9 10 9 7 6 5 4 5 3 2 3 3 5 5 6 5 5 5 4 4 4 16 33 44 55 69 83 90 90 86 86 91 90 92 93 92 91 93 95 92 95 92 82 73 68 70 72 70 67 63 61 60 61 62 63 62 62 60 56 55 57 59 66 77 82 86 86 80 79 81 78 73 69 64 60 56 51 44 42 40 37 36 35 33 32 31 30 29 29 30 31 27 24 21 18
11 8 9 9 6 5 5 5 4 4 3 2 3 4 6 6 6 6 7 5 4 5 15 33 39 46 66 75 79 90 90 80 85 91 89 92 92 91 90 92 96 96 98 95 84 73 67 70 72 70 68 64 62 62 63 64 63 63 66 67 57 54 63 70 75 80 81 77 72 76 84 87 84 78 74 70 67 63 58 50 43 42 41 39 38 36 33 32 31 29 27 26 27 27 25 23 20
11 8 9 9 9 7 5 5 3 3 3 3 5 5 6 5 6 8 9 8 7 9 22 37 35 41 63 66 68 87 89 76 85 91 87 93 93 93 93 93 96 96 99 98 88 74 68 72 74 73 71 69 66 64 66 66 65 70 74 71 61 62 73 77 83 83 75 68 66 77 88 91 88 81 78 75 71 68 66 62 51 44 43 42 40 39 38 36 34 32 30 28 27 29 29 28 28
9 9 8 10 10 9 7 4 3 4 3 5 6 5 5 5 8 9 10 10 7 11 22 31 33 38 48 51 62 85 86 76 85 89 88 94 94 94 95 94 95 95 98 98 91 77 71 76 78 76 76 75 71 68 72 71 72 78 76 73 69 73 80 81 86 78 67 67 71 77 84 90 85 76 78 78 75 70 71 69 59 50 45 43 42 41 42 41 40 37 35 32 30 32 35 36 36
8 8 9 11 10 9 8 5 4 4 3 5 5 5 5 6 11 12 13 11 9 20 31 39 47 46 42 45 62 82 83 78 86 89 90 94 96 95 95 96 95 96 98 97 92 84 83 86 82 81 81 77 73 75 79 78 80 83 77 75 79 79 81 83 84 74 64 67 73 80 85 86 79 73 76 78 78 75 73 67 61 56 48 44 44 43 45 44 44 42 40 38 35 35 36 35 35
8 8 10 12 11 9 6 4 4 3 3 4 5 6 5 6 12 13 16 15 14 29 40 49 62 62 55 59 73 84 83 81 88 91 90 94 96 95 96 96 94 95 96 95 93 88 88 92 91 88 85 80 80 82 83 84 84 83 80 79 82 84 85 84 79 72 68 70 75 86 88 79 73 73 73 73 77 78 72 64 60 56 49 46 45 45 47 47 46 44 43 41 39 37 36 35 32
9 9 10 10 9 7 5 4 3 3 4 5 6 6 5 7 13 16 18 16 15 27 41 52 67 74 75 79 84 90 87 84 89 90 90 93 94 93 93 92 92 94 93 94 94 89 85 91 96 90 84 84 87 85 83 87 83 80 83 84 83 86 92 86 73 68 71 76 79 89 83 68 67 68 70 76 80 80 74 65 59 56 52 49 47 47 48 47 46 44 42 41 41 38 38 41 38
9 9 11 9 7 5 5 3 3 5 5 6 6 5 6 7 12 16 17 19 19 27 41 50 62 73 81 87 88 93 92 87 89 88 86 88 89 90 90 90 93 95 93 93 91 88 88 93 95 87 84 84 83 84 85 87 81 78 81 81 81 87 94 90 75 68 75 81 83 92 81 62 68 69 68 77 79 76 72 66 62 60 56 52 48 47 49 50 47 44 43 41 42 42 48 61 63
9 9 10 8 5 5 4 3 4 5 5 6 6 5 5 5 8 13 16 24 27 31 38 43 55 68 77 86 91 94 93 90 90 88 82 81 83 85 87 89 92 94 93 93 92 89 91 94 90 87 88 84 81 84 87 88 84 80 79 78 82 89 94 92 82 75 80 84 86 96 84 65 69 71 72 79 80 77 73 69 68 67 65 60 54 51 59 63 57 55 54 47 48 54 62 76 79
8 8 8 6 5 5 3 4 4 4 5 6 6 6 5 5 6 9 14 21 25 28 33 38 50 64 74 84 90 95 95 92 89 87 83 80 81 82 84 87 89 92 91 91 93 93 95 92 85 84 87 89 90 86 85 89 86 82 80 81 87 89 90 91 88 82 82 81 83 92 86 74 70 69 75 80 81 78 74 74 74 76 77 75 67 60 68 74 74 82 84 74 75 78 80 82 78
8 8 6 6 5 5 4 4 5 5 6 6 6 6 4 6 6 6 11 15 19 23 30 40 49 59 71 80 89 94 94 93 89 85 83 81 82 81 83 88 90 91 90 89 89 93 98 93 88 88 90 97 94 81 81 88 88 83 80 83 89 87 85 89 89 82 78 73 71 78 78 74 68 66 74 79 80 79 77 77 76 77 79 80 75 69 77 84 85 91 91 84 83 83 85 84 76
8 8 6 6 5 4 4 5 6 6 6 6 5 5 4 5 5 6 7 11 20 26 33 44 53 60 69 78 87 91 90 90 87 82 81 82 84 83 82 87 92 93 93 93 88 88 92 88 89 92 92 96 88 74 77 85 85 80 78 81 83 81 80 82 81 75 72 68 66 70 72 74 76 77 81 83 81 80 77 75 74 73 72 77 77 75 80 84 79 73 70 68 71 79 82 79 72
7 7 6 7 5 4 5 5 6 6 6 6 5 5 5 5 5 5 5 9 21 30 34 41 52 62 69 75 81 85 87 86 83 80 80 83 85 85 85 83 90 96 95 95 88 85 86 83 87 93 91 89 80 69 69 78 81 78 78 79 76 76 78 78 79 73 63 62 67 68 67 78 86 84 82 83 81 79 75 73 73 70 66 74 79 76 78 78 73 65 62 62 68 79 78 68 66
6 6 6 6 6 5 5 6 6 6 5 5 5 5 5 5 5 4 5 8 17 26 32 39 48 56 63 70 76 80 85 85 82 81 80 83 86 88 87 84 90 95 95 92 86 84 87 88 90 91 89 85 77 67 65 70 75 77 76 72 73 79 78 77 82 71 52 56 68 63 60 75 86 84 81 79 77 75 71 70 72 69 67 75 79 79 80 76 70 69 69 66 67 73 71 65 64
5 6 6 5 6 5 5 6 6 6 5 4 5 4 5 5 5 5 5 7 12 17 27 39 44 48 55 64 72 77 83 86 83 84 84 83 86 88 88 88 89 91 92 88 82 83 86 86 87 85 84 84 76 71 68 64 65 70 67 64 76 87 83 77 79 66 51 61 69 62 59 66 76 83 82 74 68 68 68 68 68 69 73 77 78 77 77 75 70 72 73 71 71 71 70 70 67
5 6 6 6 6 6 5 6 6 6 5 5 5 4 4 4 4 5 4 6 11 12 21 36 38 40 48 58 69 73 79 84 82 84 85 83 85 90 90 88 86 84 86 83 80 82 82 81 82 83 85 81 77 82 81 71 72 71 62 70 83 85 82 73 66 57 55 64 66 67 68 67 74 81 81 77 68 60 64 68 66 68 75 78 77 75 75 78 76 73 71 71 72 72 73 73 69
6 5 7 7 6 6 5 4 6 6 5 4 4 5 4 5 4 5 4 5 10 10 16 28 32 35 42 51 62 69 75 78 79 84 83 83 86 88 89 89 85 82 83 81 78 81 81 82 82 84 88 83 80 91 93 84 86 78 64 73 80 78 76 65 59 58 61 70 73 78 81 78 81 83 81 84 76 64 64 66 66 68 69 71 76 76 76 78 75 70 72 73 70 70 74 75 69
6 6 7 8 6 7 5 4 6 5 5 4 4 7 6 5 4 4 5 4 8 10 10 18 27 33 37 47 57 64 71 72 76 80 81 85 88 86 89 90 86 82 85 82 77 81 81 83 86 88 91 85 77 82 89 85 84 85 77 74 76 77 70 57 66 77 77 83 84 83 83 78 80 82 81 85 82 73 73 74 74 73 69 69 73 74 73 75 75 72 73 74 70 67 70 72 69
6 7 7 8 9 8 5 4 5 5 5 4 4 8 6 5 4 4 4 4 8 10 9 13 23 31 35 45 53 59 69 70 71 75 80 88 90 88 89 90 88 87 91 85 79 79 79 86 91 89 84 77 72 76 82 78 73 73 70 72 80 83 73 66 81 92 88 86 82 78 80 78 78 80 77 79 80 76 77 82 80 76 74 73 71 72 71 73 77 77 75 71 67 66 68 69 68
6 9 9 8 8 7 5 4 5 6 5 4 5 7 6 4 3 3 4 5 8 10 11 12 18 31 38 41 47 57 68 69 71 75 81 88 90 90 91 92 93 93 93 88 82 76 75 87 90 84 78 72 72 75 71 68 73 68 55 66 81 81 81 82 84 86 84 80 76 75 76 75 75 79 77 76 78 78 80 82 78 77 78 74 71 74 74 74 78 77 76 72 65 68 75 73 69
7 8 10 8 7 7 5 3 4 4 4 4 4 5 5 5 3 4 4 4 8 10 11 12 15 29 40 42 44 54 64 68 72 76 82 89 88 88 92 95 95 92 88 90 88 74 71 82 84 79 75 72 74 74 66 62 74 74 63 70 78 79 88 88 80 79 79 76 76 75 74 77 77 77 78 78 79 78 79 79 77 77 78 77 73 73 75 76 76 73 70 68 65 70 79 78 72
9 8 9 7 6 6 5 4 3 3 4 4 4 5 5 5 3 4 4 3 7 10 11 13 12 24 41 43 44 50 56 65 70 72 80 87 87 91 96 94 91 84 82 94 92 72 65 71 77 78 74 71 72 74 73 68 69 69 70 81 85 88 93 90 86 85 81 80 81 77 73 77 77 76 77 79 80 79 78 78 79 79 78 76 74 72 72 74 74 71 67 65 67 71 76 77 72
9 9 9 7 6 5 5 4 3 3 5 4 5 6 6 5 3 5 5 4 9 11 10 12 12 27 45 43 42 46 49 61 71 71 75 86 91 94 94 85 76 75 86 99 87 67 65 66 71 77 72 66 63 66 65 61 64 63 68 84 89 89 88 87 89 85 81 81 82 77 73 75 74 74 79 80 80 80 79 78 79 80 77 76 78 75 74 72 71 70 69 69 71 73 73 73 70
8 9 8 7 6 4 5 4 3 4 4 5 5 6 6 5 4 6 8 7 10 10 9 12 13 25 40 38 37 41 42 52 65 73 81 92 94 89 87 77 65 69 90 100 76 58 64 64 66 71 73 68 60 64 60 53 64 68 72 84 87 85 84 86 86 79 78 75 73 69 65 74 79 78 80 83 83 80 80 80 82 84 77 77 79 77 76 71 66 69 74 75 74 75 76 73 69
7 10 9 7 5 5 5 3 3 3 4 6 5 5 6 5 5 5 9 10 9 10 10 12 12 18 29 33 35 39 38 40 60 84 91 90 89 89 87 73 58 62 83 93 72 62 69 64 61 66 71 67 56 60 62 56 62 70 78 84 84 82 79 82 81 76 78 78 81 77 62 66 78 83 82 81 83 84 84 81 82 84 79 79 78 76 78 73 66 70 75 78 77 75 76 75 74
9 12 12 8 6 5 4 3 4 4 6 7 5 5 5 5 6 4 8 11 11 11 10 11 12 14 23 31 35 35 36 49 74 89 84 78 84 94 87 63 53 58 73 82 69 66 72 61 56 61 62 58 52 58 61 57 61 69 77 80 81 78 74 79 78 69 65 63 71 77 73 72 69 68 69 71 76 79 81 79 79 82 77 74 73 71 75 74 71 72 73 78 82 79 74 75 79
13 14 13 10 7 5 5 5 4 4 7 7 6 7 6 7 6 5 8 10 11 11 11 12 11 13 22 29 29 26 39 69 83 72 67 80 94 97 84 63 56 61 71 78 69 63 63 56 54 60 62 59 59 61 58 57 63 71 75 73 74 73 74 80 75 61 50 49 57 60 68 77 68 62 70 79 73 64 67 70 70 74 70 66 65 67 73 76 75 74 76 81 82 80 77 79 82
16 16 14 12 9 5 6 8 6 7 10 9 9 9 9 9 6 6 7 7 11 12 12 12 10 18 26 24 25 33 54 78 77 61 60 80 99 97 82 65 57 62 69 72 69 61 57 55 54 59 64 61 59 57 53 55 63 74 76 69 71 73 73 73 64 58 58 64 68 62 66 75 72 68 73 79 70 61 68 71 67 67 71 77 75 73 79 83 80 77 80 83 82 79 77 79 79
16 16 15 12 9 6 7 10 9 9 12 11 11 12 12 9 8 9 7 8 14 13 15 13 12 23 24 24 46 62 67 69 61 55 62 83 100 95 79 61 53 64 72 71 71 63 56 55 51 56 59 51 49 49 49 54 60 66 61 60 74 74 66 66 61 62 70 67 60 63 73 73 68 64 65 72 69 62 63 70 76 71 69 80 82 79 81 81 80 79 83 86 85 83 79 77 72
15 14 14 11 10 9 7 9 10 12 15 13 12 18 17 10 9 10 8 13 16 15 18 13 13 24 21 32 68 77 66 58 47 47 70 95 99 88 78 62 54 66 73 71 67 57 52 51 49 54 54 43 39 42 50 57 54 47 41 53 72 66 60 66 63 65 72 67 61 70 78 73 70 67 68 77 74 66 61 64 78 72 61 69 74 78 81 80 80 79 82 87 87 85 82 80 75
14 11 11 10 10 10 9 10 12 14 18 17 15 19 19 14 12 9 9 17 19 17 19 16 17 20 20 42 73 76 68 62 45 47 76 97 94 88 82 67 59 66 70 63 55 49 47 47 46 50 51 42 39 43 52 56 49 40 37 50 62 60 66 71 62 66 73 72 73 77 75 73 75 69 65 67 61 64 70 70 76 73 66 68 70 74 78 80 82 78 76 81 83 83 82 83 81
13 10 9 8 8 10 11 12 12 13 16 18 15 15 17 15 11 8 10 17 22 20 21 22 18 21 38 63 75 68 65 62 49 52 73 87 94 96 86 71 65 66 64 55 47 45 45 45 44 48 51 45 45 52 55 56 50 36 35 49 61 70 78 71 65 71 70 66 66 68 71 73 75 69 63 61 54 56 65 70 73 70 66 67 70 76 79 80 81 73 69 73 76 79 82 84 82
12 8 8 7 7 8 10 12 13 14 17 19 16 15 18 16 10 10 11 16 24 22 24 24 19 38 69 80 75 62 55 58 54 56 71 83 93 99 89 75 69 66 60 53 48 45 45 45 43 49 54 48 53 59 53 51 44 32 42 60 71 81 78 66 64 61 56 59 65 73 77 75 77 72 63 63 63 59 58 61 67 67 64 65 69 74 76 77 76 66 59 64 70 72 75 80 81
10 7 9 9 8 7 10 13 13 16 22 23 18 17 21 20 12 13 14 17 23 20 22 23 20 48 77 74 67 58 51 60 63 60 74 89 91 92 89 77 70 68 59 53 53 48 46 49 47 49 52 45 50 55 45 38 30 31 55 72 78 81 71 63 60 47 49 65 71 71 67 64 68 65 59 63 68 68 59 48 52 61 63 66 68 68 67 68 69 63 54 52 58 63 66 71 76
9 8 10 12 11 9 10 12 12 19 25 21 17 17 23 25 16 14 17 16 19 19 22 22 20 47 73 66 57 53 54 69 74 66 76 92 90 87 88 80 72 68 61 60 60 51 50 56 53 47 46 43 44 46 43 39 34 37 54 72 80 75 66 65 55 37 42 57 61 62 61 62 62 53 49 49 47 51 50 38 36 45 56 66 68 66 67 67 67 71 67 54 50 59 63 63 67
9 11 13 16 16 13 12 13 15 23 25 18 15 14 21 27 20 19 23 17 18 25 31 28 26 49 70 60 50 54 61 74 81 77 79 91 92 88 89 85 76 70 68 68 62 54 53 56 56 50 48 46 42 44 44 40 43 45 50 69 76 67 66 64 46 30 34 47 57 65 66 62 53 42 35 30 28 30 31 27 24 28 43 61 69 68 65 60 55 61 66 54 44 47 48 50 59
9 12 16 20 21 21 21 20 20 23 22 16 14 15 20 26 23 26 29 22 20 24 30 31 31 47 64 59 51 55 65 76 83 81 81 89 92 90 92 90 81 74 71 68 61 56 54 53 53 51 51 50 44 45 43 39 49 53 53 68 72 69 69 59 42 35 37 52 65 64 56 47 41 35 26 23 28 28 23 21 19 19 26 37 52 61 61 57 47 41 40 36 32 30 27 32 47
11 11 15 21 24 27 28 23 21 22 19 14 13 17 25 29 26 27 28 26 27 26 29 32 30 36 52 58 57 59 69 79 81 76 80 90 89 88 93 92 86 80 75 69 60 54 52 52 53 51 54 55 48 45 42 42 56 61 59 64 68 71 69 58 48 41 45 61 64 52 45 40 37 32 22 23 30 24 18 18 17 18 19 20 30 44 57 65 53 32 21 19 20 20 18 20 28
10 9 12 18 22 26 28 24 23 23 18 16 16 18 29 41 37 28 28 30 31 33 37 39 36 37 47 55 61 68 74 80 81 76 78 89 91 89 91 90 86 87 83 72 60 54 54 58 61 60 56 53 51 50 47 48 59 67 61 52 56 65 65 61 53 46 54 59 50 47 48 43 38 28 18 20 22 15 14 17 15 16 17 16 21 29 41 50 40 22 17 18 18 17 17 16 16
11 7 10 17 19 22 27 28 27 26 21 20 24 24 28 40 39 29 29 32 32 36 43 45 47 52 60 68 74 77 77 79 80 75 75 83 89 90 91 91 87 86 87 80 68 65 66 68 72 73 64 57 60 57 51 53 65 77 61 36 46 65 64 61 56 51 55 46 38 50 52 43 34 20 12 12 12 13 13 13 13 13 13 13 16 20 23 24 21 15 15 17 16 15 15 15 12
19 12 10 11 12 18 28 31 27 26 27 23 27 34 33 35 39 32 28 33 38 44 49 52 55 61 72 80 84 84 82 80 77 77 80 82 83 87 94 97 91 85 87 86 81 80 79 78 83 86 78 72 70 59 53 60 73 83 62 35 50 72 65 60 56 49 48 43 47 56 50 43 29 11 10 12 10 13 12 11 13 12 12 12 11 14 14 13 12 12 12 13 13 12 12 13 12
20 17 12 9 13 18 21 29 32 32 32 22 21 33 35 32 36 34 30 37 51 58 60 62 61 64 74 80 80 83 87 87 81 77 80 82 85 92 95 93 92 89 88 89 90 90 87 84 87 91 87 81 74 59 52 65 79 80 61 46 59 73 68 64 56 44 39 40 52 56 48 41 25 9 11 12 10 13 12 13 15 13 14 14 13 14 13 14 14 13 15 14 14 15 15 17 18
11 14 12 15 28 29 19 25 34 37 37 27 19 22 25 27 31 33 39 48 59 67 69 68 65 65 74 80 79 76 77 83 82 75 75 86 95 97 93 91 93 94 93 93 95 96 94 91 90 92 92 89 84 67 54 66 82 73 54 53 64 69 71 69 51 36 30 30 37 45 47 37 18 10 13 12 13 16 15 17 17 17 19 18 17 19 18 19 19 18 20 20 20 21 21 24 25
8 11 10 15 25 25 21 25 27 28 33 30 20 16 26 40 37 31 41 52 58 66 70 65 62 65 71 73 70 63 62 71 79 78 78 87 94 92 91 93 96 97 97 96 96 97 97 95 92 94 97 95 93 83 68 70 77 66 51 51 57 60 69 69 48 28 23 21 21 28 37 32 16 11 14 13 15 16 17 21 20 19 22 21 21 23 22 23 25 26 25 23 25 29 27 25 27
10 13 13 15 18 16 21 26 21 19 24 27 24 25 38 51 40 25 34 48 50 55 62 59 60 67 69 64 62 62 63 68 72 72 71 76 82 85 88 92 94 95 95 95 98 99 97 94 91 91 92 89 85 84 80 71 65 61 52 47 48 53 62 60 41 24 18 16 15 18 23 21 15 14 15 15 19 19 18 21 21 21 22 22 24 24 22 28 34 34 27 22 30 47 46 31 28
11 12 13 15 18 22 26 26 21 19 21 23 27 37 47 47 38 31 35 43 43 46 51 51 54 63 64 61 63 65 63 61 62 65 66 68 72 77 85 92 93 92 91 92 95 93 87 83 81 78 77 77 76 78 82 73 60 55 48 45 50 59 68 63 38 19 16 15 14 15 17 16 15 16 16 19 22 21 22 24 23 23 23 22 25 24 27 41 44 36 33 32 41 62 65 48 44
Wind_Speed
9 8 9 9 7 1 7 10 5 5 5 7 9 8 11 14 15 14 8 2 1 4 6 4 2 2 3 5 10 21 18 12 8 5 7 11 16 14 13 16 17 13 12 19 23 22 22 21 21 21 20 20 20 19 18 18 17 17 16 16 16 15 14 13 12 12 12 11 12 12 11 11 11 12 12 10 8 9 10 10 9 8 8 7 7 6 5 6 8 10 11 9 10 10 11 12 12
9 5 6 6 5 5 8 10 6 4 7 8 8 10 12 13 16 14 7 5 5 4 3 2 2 1 2 7 7 19 18 17 15 16 17 17 20 17 15 14 12 11 13 21 24 23 23 21 21 20 20 20 19 19 19 18 17 17 16 16 16 15 14 12 12 12 11 11 12 12 11 11 11 11 11 10 8 8 9 10 10 9 6 6 7 7 7 6 8 9 11 9 10 10 10 11 12
9 4 5 5 8 10 7 8 7 6 8 8 8 11 13 14 15 9 5 4 8 9 3 5 1 1 1 5 7 14 12 15 17 19 19 19 19 19 18 14 10 9 16 24 23 23 23 22 21 19 19 19 19 19 19 19 18 18 17 16 15 15 14 11 12 12 10 11 12 12 12 12 12 12 11 11 10 8 8 9 10 9 6 4 5 7 8 8 8 9 10 10 10 10 10 10 11
12 11 10 9 10 9 7 6 6 8 8 8 8 11 15 16 10 2 2 4 9 7 2 3 3 4 8 5 9 13 12 14 14 15 17 16 19 21 18 14 10 11 19 24 23 23 22 22 20 19 19 19 19 19 19 19 19 18 17 16 15 15 13 12 12 11 11 12 13 12 12 12 13 12 12 12 11 10 9 9 9 9 6 4 5 6 8 8 8 9 11 10 11 10 10 10 10
12 10 10 12 9 5 6 5 6 8 8 9 8 5 6 7 3 7 8 7 4 3 3 3 5 8 14 13 9 9 9 12 12 12 16 16 20 22 17 14 13 13 20 23 22 22 21 21 20 19 19 19 19 18 19 18 18 17 16 15 15 14 12 12 12 11 12 13 13 12 12 12 13 12 12 12 11 11 10 10 9 9 7 6 6 6 6 7 7 8 10 11 11 11 10 10 9
11 6 9 14 11 8 6 6 8 8 11 12 10 9 7 8 9 9 8 2 3 3 5 6 5 7 12 13 14 12 8 9 10 10 15 18 20 19 16 16 15 16 21 22 21 22 21 21 20 19 18 18 18 18 18 17 18 17 16 16 15 14 12 11 11 12 13 13 13 12 13 13 13 12 11 11 11 12 12 11 10 9 8 7 7 6 6 6 7 7 9 11 11 11 11 10 9
11 7 9 11 11 9 7 7 9 8 12 13 13 14 5 9 6 5 5 4 4 5 8 7 5 9 9 11 13 13 11 9 10 10 15 19 17 16 16 17 18 19 19 18 20 22 21 20 19 18 18 18 18 18 18 18 18 17 16 16 14 13 12 11 12 13 13 13 13 12 13 13 13 13 12 12 11 12 12 11 10 9 8 7 7 6 6 5 6 6 8 10 11 11 11 10 9
12 11 10 8 6 6 7 8 10 9 11 13 15 9 4 7 5 2 2 3 4 5 10 9 7 9 8 11 11 9 13 12 12 14 17 20 17 17 17 18 20 20 17 15 17 22 21 20 18 18 18 18 19 18 18 18 18 17 16 15 15 14 13 13 13 13 13 13 13 13 13 13 13 12 12 12 12 11 11 10 9 8 7 7 6 5 5 5 5 7 7 8 10 11 11 11 10
13 13 10 8 6 6 8 9 10 11 13 14 14 4 10 6 2 4 7 3 2 2 9 12 10 9 12 16 13 9 13 13 15 17 18 20 19 18 18 19 21 21 20 15 15 21 21 19 18 17 18 18 19 19 19 19 18 18 16 16 15 15 14 14 13 13 13 14 14 14 14 13 12 12 12 12 12 11 11 10 9 7 6 5 4 3 3 4 5 6 7 7 10 12 12 11 10
13 13 10 6 7 8 9 8 9 11 14 14 12 2 8 4 4 7 8 7 4 5 7 11 9 11 18 15 12 10 12 13 16 16 18 21 19 19 19 18 19 20 20 15 15 20 21 19 18 17 18 18 19 19 19 19 18 18 17 17 16 15 15 14 14 13 14 15 14 14 13 12 11 12 12 12 11 10 10 9 8 6 5 4 2 2 2 3 3 4 5 7 11 12 12 12 10
10 12 11 7 7 8 8 9 10 10 13 15 9 4 2 1 2 7 8 8 8 8 8 8 7 16 19 12 11 10 12 13 15 16 18 19 17 18 19 17 16 16 16 15 16 20 21 20 20 18 18 18 19 19 20 19 19 19 18 17 17 16 15 15 14 14 15 14 13 13 13 12 11 11 12 12 11 9 9 8 7 6 5 4 3 2 2 3 3 3 3 5 9 12 13 12 11
9 8 9 7 7 8 9 9 10 11 13 14 5 3 2 4 3 6 8 9 9 8 11 9 15 20 13 10 12 13 14 13 14 16 18 17 15 17 18 16 15 14 13 14 17 20 21 21 21 20 19 19 20 20 20 20 20 20 19 18 18 16 15 15 15 15 15 13 13 14 14 14 13 11 11 11 10 9 9 8 7 6 5 4 4 3 2 3 4 4 5 6 8 11 13 13 12
10 8 7 7 8 8 10 10 11 11 9 7 2 3 6 4 5 8 10 11 9 9 9 12 26 20 10 12 15 15 15 14 14 15 17 15 14 17 17 15 14 14 13 13 17 20 21 22 22 21 20 20 21 21 21 21 21 21 20 19 18 17 16 16 16 16 15 15 16 16 15 14 13 11 10 10 9 9 8 8 8 7 7 6 5 4 3 3 4 5 6 7 7 9 11 12 12
13 12 8 7 8 9 11 9 11 9 7 1 5 9 10 4 7 8 10 8 10 8 7 23 28 17 12 12 13 16 15 15 15 16 16 15 15 16 16 15 14 14 13 13 15 19 21 21 21 22 21 21 22 22 22 22 21 21 19 19 19 18 17 16 17 16 14 15 15 16 17 15 13 11 10 9 8 8 8 8 8 8 8 7 6 5 4 4 4 5 5 5 6 6 8 10 10
15 14 9 7 8 9 9 10 11 9 6 2 7 10 7 6 7 7 9 8 10 9 17 21 15 9 11 9 10 17 18 18 17 17 16 15 15 15 15 15 15 14 13 13 14 18 21 21 21 22 23 23 24 23 23 22 22 20 18 19 20 19 17 17 16 14 13 14 13 14 16 16 14 12 10 8 7 7 7 7 8 8 7 7 6 5 4 4 4 4 5 5 5 5 6 8 9
16 14 7 7 9 9 9 10 10 10 4 8 4 4 3 7 6 7 10 11 14 7 14 11 9 8 11 8 13 21 20 20 19 18 17 15 15 14 15 14 15 15 14 15 16 19 20 20 22 23 24 24 24 25 24 23 22 19 18 19 19 18 17 17 15 14 14 14 14 13 14 15 13 10 9 8 7 6 7 7 7 7 6 6 5 5 4 3 3 4 4 5 4 4 5 7 8
16 12 7 7 9 9 9 11 8 8 4 8 1 1 3 5 7 6 9 12 11 10 16 15 18 11 8 9 17 24 21 21 20 19 18 17 16 15 15 15 16 16 16 17 17 20 19 19 22 23 24 24 24 25 22 22 20 17 17 18 18 17 16 16 14 13 13 14 15 14 14 14 11 10 9 9 7 7 7 7 7 6 6 5 4 3 2 2 2 2 2 3 4 4 5 6 8
14 8 8 8 9 10 11 13 6 5 5 5 6 4 5 6 6 5 6 9 5 14 19 19 21 14 12 14 21 23 24 23 22 21 20 19 17 17 17 16 17 18 18 17 17 19 19 19 20 23 24 23 25 23 22 21 18 17 18 18 16 16 16 15 13 13 13 14 14 14 14 12 11 11 10 10 9 9 9 8 7 6 6 5 4 2 1 1 0 0 1 2 3 4 4 5 7
12 6 8 9 10 12 13 13 5 3 4 5 5 1 6 4 3 4 5 10 8 8 13 16 17 16 16 18 20 21 24 24 23 23 20 19 18 19 19 17 17 18 17 17 17 17 17 19 21 23 23 22 23 22 22 20 18 19 19 18 17 16 17 15 13 14 14 14 14 14 13 11 11 11 10 10 10 9 9 8 7 5 5 5 4 3 2 1 1 1 1 2 3 3 3 4 6
13 10 8 9 13 15 18 14 5 6 8 6 2 3 6 1 3 5 5 7 5 5 11 13 11 13 14 16 17 17 22 24 23 23 20 19 18 19 19 19 17 16 16 15 16 17 16 19 21 22 22 21 23 22 22 21 21 21 18 16 16 16 17 16 14 14 14 14 13 14 14 12 11 11 10 11 10 10 9 8 6 6 5 5 4 4 3 2 1 1 2 2 2 3 2 3 3
12 12 9 12 15 15 18 12 6 6 4 6 4 2 6 2 3 4 5 3 2 6 13 14 13 15 15 17 16 16 20 23 22 23 22 19 18 19 19 18 16 15 18 16 16 17 18 21 20 20 22 23 24 23 22 22 22 20 17 15 15 16 16 16 15 15 14 13 13 14 15 14 12 11 11 12 11 10 8 7 6 5 5 4 3 3 2 2 2 1 0 1 0 2 3 3 2
10 13 14 17 18 15 14 9 6 9 3 6 5 4 6 2 3 6 7 7 3 7 13 15 17 18 18 17 16 17 19 21 22 22 22 19 18 19 19 18 16 17 18 17 17 16 18 20 20 20 22 24 24 22 22 21 21 19 16 16 15 16 15 15 15 15 15 15 15 14 14 14 13 11 12 11 10 9 8 7 7 5 4 3 3 3 2 3 3 2 3 2 2 1 3 1 2
10 11 16 20 23 17 16 10 3 4 3 6 9 13 8 3 6 9 7 7 6 9 13 17 17 16 17 16 16 19 21 21 21 22 20 19 18 18 19 19 18 17 16 16 18 19 18 17 18 19 21 23 22 21 21 20 20 19 16 16 16 15 14 14 15 14 14 15 13 12 12 12 11 11 12 11 10 10 8 8 7 5 4 4 4 4 3 3 3 4 6 5 5 3 4 4 4
14 12 14 19 22 19 18 13 2 1 7 10 13 15 6 4 8 5 8 5 14 16 17 20 18 16 17 17 17 19 21 21 21 20 19 18 18 17 19 19 17 16 14 15 18 20 17 14 15 17 20 21 21 20 20 19 18 17 16 15 15 14 14 13 13 13 13 12 10 11 12 11 11 12 11 11 10 10 9 8 7 6 6 6 6 6 6 5 4 4 5 5 4 4 4 5 7
15 14 15 16 19 19 18 15 8 4 8 11 13 12 4 8 12 6 10 6 21 23 22 20 19 20 19 17 17 18 20 20 19 19 18 17 17 17 19 19 17 15 15 16 17 17 15 13 15 17 19 20 20 21 20 18 17 17 17 16 15 14 13 13 12 12 11 10 10 11 13 12 13 13 12 11 10 9 8 7 8 8 7 7 8 8 7 5 4 5 4 4 5 5 6 5 6
13 16 18 17 18 17 13 13 14 10 9 10 10 12 8 11 15 9 9 7 16 20 25 24 20 19 17 17 16 17 19 19 18 19 17 16 17 18 20 17 14 14 15 15 14 15 13 14 16 15 17 19 19 21 20 18 18 17 17 16 16 14 13 14 13 11 10 11 12 12 13 13 12 10 10 11 9 8 8 7 8 8 7 8 9 9 8 6 3 4 3 3 5 7 7 5 6
15 19 18 19 20 18 14 12 15 14 13 13 10 11 11 14 14 6 11 12 13 14 22 25 19 18 15 15 16 16 18 19 18 19 18 17 18 20 20 15 13 13 12 11 13 14 13 15 16 14 17 20 19 20 20 18 17 16 16 16 16 15 13 14 13 11 11 13 13 12 11 11 10 9 9 9 8 8 8 8 8 8 8 9 10 11 10 7 5 5 5 5 5 6 7 4 5
20 18 12 15 19 20 18 13 14 15 13 15 13 12 13 15 14 8 16 15 14 13 19 25 18 17 15 13 15 15 16 18 19 19 19 20 19 19 18 16 16 14 11 13 16 15 15 15 16 17 19 21 21 19 18 17 17 16 15 15 14 13 12 13 14 12 13 13 13 13 12 11 11 12 12 10 9 9 9 8 7 8 8 9 12 11 10 8 7 7 8 7 5 5 5 4 4
21 16 10 12 15 17 19 15 15 14 11 15 14 12 11 12 14 14 20 18 16 15 17 23 17 16 14 12 12 13 16 17 19 19 20 21 19 17 17 17 18 15 14 17 17 17 18 15 15 19 20 21 22 18 17 17 16 15 14 15 12 9 10 12 13 14 15 15 13 13 12 11 12 11 10 10 10 8 8 8 6 7 9 10 12 12 11 10 9 8 8 7 5 6 6 5 5
17 13 10 11 10 12 18 17 16 15 11 14 12 8 9 12 16 18 22 21 16 16 17 17 17 17 14 14 13 14 16 18 20 20 21 22 20 18 18 18 18 17 17 19 20 20 19 16 16 19 19 20 20 17 16 16 14 13 13 14 11 10 11 10 13 15 15 13 11 9 9 10 9 8 7 8 9 7 7 8 7 9 9 9 10 11 11 11 11 9 7 7 5 5 6 6 6
11 11 10 8 8 9 14 16 16 15 13 16 12 6 9 12 16 21 22 16 14 14 15 15 16 18 16 17 17 15 17 19 21 22 22 22 20 18 18 18 18 18 18 20 22 22 20 17 17 20 20 18 19 17 16 14 13 14 12 10 9 10 12 10 11 11 9 8 8 7 7 7 7 7 7 7 7 7 7 7 8 9 8 8 9 9 9 10 10 9 7 6 5 4 5 5 5
7 10 9 8 9 10 14 17 19 17 14 19 16 8 8 11 16 24 25 19 18 17 14 15 16 19 18 15 16 16 17 19 22 22 23 21 19 16 17 17 17 16 17 19 22 22 19 19 18 21 21 19 18 17 14 12 11 13 11 7 8 10 11 9 8 7 6 7 7 7 7 6 5 5 5 5 6 6 7 7 8 8 7 7 7 7 7 7 9 8 6 5 4 3 4 4 4
8 9 8 10 11 10 12 15 20 20 15 18 17 9 7 11 14 19 27 26 22 20 16 17 17 19 22 18 16 18 18 20 22 23 23 21 18 15 14 14 14 18 18 17 21 21 19 18 17 19 20 17 16 15 14 12 10 10 9 8 10 11 11 10 8 7 7 7 6 6 6 6 6 5 5 5 5 6 7 7 7 7 7 6 6 6 6 6 7 6 5 5 4 3 3 4 3
7 8 8 11 14 11 11 13 17 21 17 15 16 11 11 13 12 17 23 31 22 19 18 18 18 15 22 19 17 18 19 21 23 24 23 19 15 9 9 15 19 22 17 15 22 22 18 16 15 17 17 15 14 13 12 11 10 9 9 8 9 9 10 10 10 9 8 8 7 6 7 7 6 5 4 4 4 5 6 5 6 6 5 5 5 5 5 6 5 4 5 4 4 3 4 4 2
9 9 9 10 14 13 13 14 13 20 18 15 14 14 15 17 13 13 8 25 21 19 19 18 17 14 22 19 17 17 19 22 23 23 21 16 12 12 19 23 23 20 14 15 23 21 18 17 15 17 17 14 14 13 12 11 11 10 9 8 7 7 9 10 10 9 8 7 7 7 7 7 7 6 5 5 6 5 4 4 4 4 4 4 4 4 3 3 3 3 4 4 4 3 4 4 4
10 8 9 11 11 12 14 15 12 20 17 14 14 14 14 16 15 6 9 14 15 16 16 16 17 16 21 18 15 16 19 22 22 20 15 12 12 12 19 24 22 17 16 16 19 17 19 20 17 16 16 14 14 13 13 13 12 11 10 10 8 6 8 12 12 11 10 9 7 7 8 8 8 7 6 7 7 6 5 4 3 4 3 3 3 3 2 1 1 1 2 3 3 3 3 4 5
13 13 13 13 12 11 14 15 12 18 13 13 14 13 14 13 14 12 14 16 14 12 12 12 15 18 19 18 17 17 19 19 12 10 12 12 12 11 17 22 15 14 17 15 15 16 20 19 16 15 14 13 13 12 11 11 11 11 11 10 8 5 8 13 11 10 10 10 8 7 7 8 7 7 7 8 8 7 6 5 5 5 4 3 3 3 2 0 1 1 1 1 2 3 3 3 3
13 12 14 10 11 11 13 15 12 15 9 10 13 12 13 13 13 13 15 17 14 12 11 11 15 19 18 18 17 18 17 7 15 21 18 16 16 14 17 18 11 14 17 17 16 18 20 17 13 12 12 12 12 10 9 9 10 13 11 8 7 6 8 9 8 9 9 9 9 8 8 7 6 7 8 8 7 7 7 6 6 6 5 4 3 4 3 1 2 2 2 2 1 1 2 2 1
10 9 11 8 7 10 12 13 9 10 5 7 11 11 11 13 13 11 12 13 14 15 14 15 17 17 17 17 17 18 11 16 24 21 15 17 21 17 17 19 14 15 17 20 20 18 18 16 13 12 12 12 12 12 11 10 12 14 10 7 8 8 8 8 7 8 7 7 7 7 10 9 8 9 10 9 6 6 8 6 5 5 4 4 2 3 3 3 3 3 3 3 2 1 1 0 1
8 8 8 7 7 10 7 5 6 9 4 5 7 8 8 11 10 8 15 13 14 16 17 17 17 16 17 16 12 9 17 26 22 16 11 18 21 17 18 19 15 16 19 22 21 18 17 16 15 14 13 14 15 15 13 13 14 14 11 10 11 10 10 9 8 9 9 9 8 8 11 11 10 9 7 5 4 7 8 7 6 6 6 6 4 4 4 4 5 5 4 3 4 3 2 2 1
9 10 10 9 10 12 7 6 7 8 7 6 6 7 8 10 9 10 13 8 11 13 14 16 17 17 18 10 10 21 29 28 21 14 16 21 22 19 20 19 16 20 23 22 21 20 19 17 16 16 16 17 17 17 15 14 13 13 12 12 12 11 9 9 9 10 10 8 9 11 11 10 10 10 6 4 4 6 8 8 7 5 7 9 6 5 6 6 5 3 2 4 4 3 3 3 2
9 11 13 15 15 15 10 7 7 4 5 6 7 8 7 8 12 13 9 7 8 12 11 15 17 17 18 11 27 29 24 21 13 9 20 26 22 18 21 20 18 23 25 23 21 19 19 19 19 19 19 18 18 18 17 15 13 11 9 9 11 10 9 10 9 10 10 9 10 11 10 10 9 10 9 6 5 6 9 10 8 6 8 8 6 6 7 7 4 3 5 6 5 5 4 3 3
8 9 13 17 19 18 14 6 5 5 5 5 8 9 6 6 13 14 9 10 12 11 10 13 15 16 15 16 30 25 17 13 6 10 21 26 20 18 21 21 20 26 28 25 23 21 21 23 23 23 21 19 20 19 17 14 12 10 8 8 9 9 9 10 9 10 10 10 11 11 10 10 9 9 9 6 5 7 10 11 10 8 8 8 7 7 7 7 4 3 6 6 6 7 6 5 5
7 10 13 17 18 16 14 11 7 6 5 5 8 9 7 7 10 11 11 13 13 12 10 10 13 11 12 26 31 22 12 9 10 14 20 23 21 20 22 21 22 28 29 26 26 25 24 24 25 24 21 20 21 19 17 14 11 10 9 8 9 8 9 11 12 12 11 10 10 10 9 9 8 7 7 6 6 8 10 12 14 13 9 5 5 6 6 7 6 5 6 6 7 8 8 8 8
10 13 13 11 14 14 12 9 7 5 5 6 7 9 7 6 6 9 13 14 13 13 12 10 12 10 31 33 26 18 11 9 9 14 18 20 22 22 22 22 24 29 29 27 28 27 25 24 23 23 21 20 20 18 17 15 13 12 11 10 9 10 12 13 13 12 11 11 10 11 10 10 10 9 9 8 8 8 8 11 14 15 13 9 7 6 6 8 8 6 6 7 7 8 9 10 10
11 13 12 9 10 12 10 9 6 4 5 7 8 7 6 6 6 8 11 12 11 12 13 11 11 19 36 28 21 18 17 13 10 15 18 16 20 23 23 24 26 28 28 28 29 28 27 25 23 23 23 22 21 20 19 17 16 16 14 11 11 12 13 13 13 12 13 13 12 12 10 9 10 10 10 10 10 9 8 9 12 13 13 11 9 9 9 9 10 9 8 8 8 9 10 12 13
12 11 9 10 10 8 9 8 5 3 4 8 10 9 6 7 6 7 7 9 9 7 8 11 11 19 31 27 23 19 18 15 13 16 19 15 16 22 25 26 26 26 27 29 30 29 27 26 26 28 28 25 24 23 20 17 17 16 15 14 12 13 13 14 14 14 14 14 12 10 9 9 9 9 9 9 8 9 8 9 10 11 12 12 11 11 10 10 11 11 10 10 9 10 10 12 14
10 7 7 8 7 6 7 6 5 5 5 8 12 13 11 7 5 3 2 1 6 5 7 7 9 19 25 23 22 21 20 20 17 16 20 19 18 22 26 26 26 27 28 29 29 29 28 26 28 29 28 26 27 25 22 19 18 17 17 15 13 14 15 15 14 14 15 14 12 11 10 9 7 7 7 7 6 7 7 8 8 9 12 13 12 11 10 9 10 11 11 11 10 9 9 10 13
9 7 7 7 5 5 6 6 6 6 6 9 12 11 9 5 1 5 8 6 2 8 9 8 9 16 21 20 18 20 21 20 18 17 21 22 20 23 26 25 26 29 30 30 30 29 28 28 28 29 28 27 28 28 25 21 20 20 19 16 16 16 16 16 15 15 15 14 14 13 11 9 7 6 6 6 7 6 6 6 7 8 9 10 12 13 11 9 9 10 11 12 12 12 11 11 12
9 7 7 6 5 5 6 6 6 6 7 10 9 6 3 2 4 7 8 6 7 10 10 7 10 12 18 20 17 18 19 17 16 16 18 21 22 25 27 24 26 30 31 32 31 30 29 29 28 29 29 28 27 27 26 23 21 21 20 18 18 17 16 16 16 15 15 15 14 12 10 9 8 7 6 7 6 5 5 5 6 7 7 8 10 11 12 10 7 8 10 11 12 12 12 12 12
10 8 8 7 5 4 4 5 5 4 5 6 7 4 2 3 2 5 9 9 11 16 17 13 11 11 15 18 17 16 15 13 13 14 16 18 20 25 28 24 25 30 32 33 32 30 31 30 29 29 30 28 25 26 25 24 22 21 20 21 20 17 16 16 15 15 14 14 14 13 12 11 9 8 8 8 6 5 5 5 5 6 6 7 8 8 10 9 7 8 10 11 11 12 12 12 12
7 8 9 7 4 2 2 3 2 1 3 4 3 2 2 4 2 4 9 9 11 15 18 18 16 14 15 16 14 15 15 15 15 16 16 16 16 21 26 24 23 26 29 32 32 30 30 29 28 29 29 27 27 27 27 25 23 22 22 24 22 18 16 16 16 16 15 14 14 14 12 11 10 9 8 7 6 5 6 6 6 6 7 7 8 7 7 8 8 9 10 11 11 11 12 12 12
2 6 8 7 7 6 2 2 1 1 3 3 2 1 2 5 4 4 8 9 11 13 14 16 15 14 13 12 12 12 11 14 15 14 13 13 14 18 22 22 21 22 26 30 30 29 29 28 28 29 28 29 29 29 29 29 27 25 25 25 23 19 17 16 17 17 16 15 15 14 14 12 11 10 9 8 8 8 8 8 8 8 9 8 9 9 9 9 10 10 11 12 12 11 12 13 12
3 4 5 4 5 6 3 2 1 2 5 5 5 5 4 5 4 7 10 9 11 10 9 11 12 12 11 10 12 10 6 10 13 12 10 12 17 18 19 19 18 19 23 26 26 25 26 28 27 28 30 32 33 32 32 32 30 28 27 26 25 21 19 18 19 19 19 19 18 16 14 14 12 11 11 11 10 10 9 9 9 9 9 9 9 9 9 9 10 10 11 11 12 12 12 13 13
9 4 3 4 3 4 4 3 2 3 5 5 6 9 7 4 3 9 14 11 12 11 8 7 9 11 10 10 13 12 11 12 12 12 12 14 18 18 18 18 16 17 19 20 19 19 22 24 24 24 26 30 33 34 33 31 30 29 28 27 26 25 23 21 21 21 19 19 19 18 16 15 14 14 14 13 13 11 10 10 10 10 9 9 9 8 8 9 9 9 9 10 11 10 10 11 11
10 5 3 4 3 3 3 2 2 5 5 4 7 8 3 3 3 7 14 15 14 13 9 7 8 9 9 10 13 14 14 14 12 12 13 15 17 18 18 17 16 17 17 16 16 16 18 21 22 22 22 22 25 29 32 31 29 28 27 27 26 26 25 23 22 20 18 18 19 18 17 16 16 16 16 15 14 13 11 10 9 9 9 8 8 7 7 7 6 6 7 7 8 7 7 7 7
7 6 7 6 4 3 3 2 3 5 5 3 5 4 3 7 6 3 12 16 15 15 13 11 11 12 10 11 14 15 17 17 16 15 14 16 17 17 17 16 15 15 14 15 15 14 14 16 18 19 18 16 16 21 29 32 30 29 28 26 25 24 22 22 21 19 19 19 19 17 16 16 18 18 17 16 15 13 12 10 9 8 7 7 6 6 5 5 4 4 3 3 5 5 4 3 4
8 7 7 7 5 4 4 4 5 5 5 4 3 1 2 3 4 5 11 13 13 15 14 13 17 20 19 19 20 20 20 20 19 16 15 17 16 17 19 18 15 14 14 13 13 13 13 13 14 15 15 16 16 20 25 29 31 31 28 26 25 23 20 18 18 18 18 18 19 18 16 16 18 18 17 16 15 13 12 10 9 8 7 6 4 4 4 4 3 3 2 2 5 5 1 1 2
Wind_Direction
166 162 158 160 143 108 237 217 233 218 224 251 244 247 243 240 249 254 238 186 146 294 286 248 331 340 335 351 86 76 44 35 30 31 102 133 135 132 141 157 168 161 156 161 160 158 154 151 148 146 145 144 146 149 152 155 158 161 162 161 160 158 155 148 139 136 127 126 126 123 125 128 131 130 130 128 129 128 128 131 136 146 154 162 170 171 169 161 150 139 130 124 118 112 110 109 102
151 147 158 172 197 250 230 203 240 235 211 242 241 244 251 242 240 243 222 193 130 69 356 65 352 332 330 299 76 77 56 55 70 86 111 129 126 125 128 142 165 168 161 161 161 157 154 151 148 147 145 145 147 150 153 157 160 164 165 164 163 159 156 149 142 140 130 131 129 127 132 133 135 135 135 134 135 133 134 138 139 145 154 167 174 185 189 174 159 147 137 133 127 119 114 110 103
158 193 210 215 225 234 243 212 230 254 227 232 238 234 243 251 246 242 238 231 103 96 116 86 11 255 229 259 55 66 67 67 84 99 116 128 126 129 131 138 167 174 161 160 160 158 154 150 149 148 146 146 147 150 154 158 163 166 167 165 164 160 159 150 146 144 134 134 130 131 137 139 141 140 140 139 141 139 141 145 144 150 161 165 165 187 193 181 166 154 147 142 136 127 117 110 103
177 195 211 221 221 218 239 228 225 250 246 242 243 221 223 237 242 197 95 51 80 106 177 111 116 78 51 49 68 73 79 74 85 104 119 127 129 134 136 143 158 158 158 161 161 159 156 152 150 149 148 148 148 150 153 158 163 166 166 164 161 161 161 153 150 147 139 136 132 135 139 141 142 143 145 144 145 146 149 149 150 155 158 147 138 168 185 183 173 161 157 152 145 138 126 117 108
175 186 220 225 227 228 234 233 234 238 246 252 257 266 245 224 128 81 78 60 98 155 238 180 141 99 65 45 51 69 74 78 80 98 116 123 135 139 137 140 145 147 157 163 164 161 157 155 152 152 151 149 149 149 153 156 159 161 162 160 160 163 162 156 154 150 144 140 137 139 140 140 141 144 148 147 146 147 150 149 151 153 149 142 132 142 165 178 179 170 166 163 154 146 139 129 121
177 210 239 232 252 287 268 236 237 234 243 252 266 302 2 59 67 72 87 85 215 200 240 227 184 123 86 65 63 58 51 87 98 107 119 129 142 144 139 137 137 142 155 165 166 163 159 158 155 153 151 150 151 150 153 153 155 158 158 158 160 163 163 161 158 154 149 144 143 143 142 139 139 142 142 143 146 146 148 149 149 152 149 145 139 138 148 168 182 181 176 173 162 153 149 142 135
191 225 218 221 255 268 262 244 241 240 240 244 257 275 1 58 57 77 121 174 211 200 220 236 176 117 99 99 77 50 53 96 120 124 129 135 141 142 143 139 138 142 153 167 167 164 162 160 156 154 153 152 153 151 152 152 153 155 155 157 158 162 164 163 162 159 154 149 149 148 144 139 137 138 139 143 148 148 149 151 150 151 152 149 144 142 148 165 182 191 191 179 167 161 157 152 147
206 237 217 210 241 227 237 249 247 249 244 241 248 256 68 65 56 10 278 192 187 190 201 209 175 132 96 96 85 52 64 90 121 127 133 135 137 141 142 140 141 143 149 165 170 166 161 159 158 157 156 154 154 153 152 151 152 152 154 157 160 164 165 165 165 163 158 154 154 153 146 139 140 140 141 146 150 152 150 150 150 152 154 150 144 140 148 162 181 199 205 182 170 173 168 162 158
219 242 235 224 240 232 236 243 243 250 253 252 252 210 99 106 185 276 301 293 180 237 210 193 192 156 104 88 91 85 83 99 120 128 138 139 143 143 142 143 143 146 151 162 169 165 160 159 162 160 158 157 156 155 153 151 151 152 155 159 162 166 167 168 167 165 159 157 158 154 147 145 147 143 141 146 150 152 150 150 151 156 156 149 146 137 144 163 178 200 207 185 178 184 179 173 169
221 229 235 239 238 244 241 240 241 246 252 251 245 187 82 101 212 242 267 281 249 268 230 183 188 138 115 101 99 103 109 126 132 136 145 146 149 146 145 145 146 152 160 164 160 164 162 160 163 161 161 160 159 157 154 152 152 154 158 161 164 168 169 169 169 165 162 161 159 153 148 149 151 146 142 145 150 152 150 151 153 158 155 150 156 135 125 141 164 189 195 188 189 192 189 187 181
222 219 230 247 237 246 245 245 241 234 248 246 222 145 82 154 216 244 237 261 257 249 233 193 152 114 110 101 102 119 127 138 143 145 149 149 149 147 147 144 149 159 164 162 157 164 164 161 164 164 164 163 162 158 155 155 156 159 161 164 167 171 171 171 171 168 164 162 157 151 149 152 154 150 144 143 146 150 152 152 154 159 156 153 161 147 129 117 115 135 152 178 194 198 197 196 196
229 221 218 240 244 245 248 254 249 236 236 233 208 121 189 192 215 256 239 242 248 246 243 206 134 119 115 107 119 136 134 138 146 148 149 149 148 147 147 145 153 166 166 160 158 164 166 166 165 166 167 165 163 159 158 160 163 165 165 169 172 173 173 174 173 171 166 157 152 152 155 157 155 151 147 143 142 147 150 151 152 152 150 147 152 152 154 135 118 132 147 160 183 201 203 203 204
232 239 221 235 246 251 256 256 260 258 242 216 154 110 119 137 229 249 242 228 229 248 248 152 129 124 112 114 130 142 141 146 148 150 151 152 152 148 150 150 154 164 166 163 160 164 169 168 166 168 168 167 164 161 163 167 169 170 168 172 175 175 176 177 177 176 165 154 156 157 159 159 154 153 150 146 142 143 145 146 146 143 141 137 139 142 142 139 136 144 152 159 174 196 205 207 207
231 245 244 249 248 254 260 259 265 267 261 218 109 129 124 169 246 260 253 235 220 219 93 108 123 120 110 118 137 150 151 156 153 150 156 155 149 149 153 154 153 156 159 163 162 164 170 169 168 169 168 168 165 165 170 172 171 169 168 174 177 177 178 180 181 175 159 155 163 160 157 157 155 154 148 147 145 142 143 144 145 145 142 139 136 134 133 135 137 135 145 163 174 186 195 201 204
235 245 253 261 260 257 254 260 268 269 271 71 110 130 132 228 240 266 258 256 235 171 95 100 116 114 139 150 158 164 157 159 160 152 159 156 147 150 151 152 152 151 154 162 165 168 171 171 172 170 169 170 168 171 174 173 172 172 175 177 177 180 180 181 179 167 154 157 164 159 157 157 154 151 147 151 151 148 149 150 151 152 147 145 143 139 137 130 127 129 135 151 174 181 178 183 191
235 247 256 256 262 262 256 255 256 265 293 69 74 151 180 234 195 240 234 235 242 147 94 98 76 84 151 154 157 164 156 158 160 155 162 154 148 151 147 150 150 150 160 166 166 169 174 175 174 171 170 171 172 174 176 179 178 179 183 178 176 180 181 180 176 164 157 163 166 166 166 157 152 155 157 155 158 165 168 166 162 159 156 152 149 147 145 135 131 133 132 142 165 181 178 178 185
232 242 255 256 254 255 253 252 245 253 227 105 67 217 238 230 155 236 250 239 243 85 69 74 71 75 128 137 158 160 153 158 157 158 165 155 152 150 148 155 154 157 169 173 170 170 174 177 177 174 172 175 176 176 179 184 183 183 180 175 176 179 182 180 174 165 162 169 171 173 168 156 158 169 167 161 170 183 184 182 176 170 165 159 157 155 156 149 141 131 132 144 154 177 185 181 182
232 229 240 249 250 251 247 255 264 269 259 98 54 32 267 257 145 195 244 245 223 90 76 75 75 72 88 121 153 155 152 159 159 161 166 160 156 153 156 161 161 166 175 180 179 177 176 177 180 175 174 178 179 179 183 184 184 184 178 175 178 178 180 180 172 167 169 174 175 172 161 156 166 176 175 170 180 191 191 192 188 182 172 168 171 176 208 219 242 180 166 176 181 193 191 190 179
230 232 236 239 245 252 248 261 299 1 349 51 47 316 243 273 92 138 216 234 210 133 99 87 83 86 94 117 140 147 153 161 162 165 168 165 161 160 163 165 169 173 179 184 181 184 187 182 180 177 179 184 182 181 183 182 180 180 178 177 178 178 180 179 172 171 178 180 178 172 160 161 171 178 184 177 184 193 193 198 196 194 185 183 185 190 225 231 235 226 203 206 207 205 199 203 179
223 233 241 237 243 255 259 274 329 29 17 12 29 197 221 255 139 169 217 226 199 148 116 108 104 111 116 126 142 151 158 164 164 170 173 171 169 167 168 169 172 170 175 187 185 186 193 190 183 181 185 188 186 183 183 181 176 178 179 178 176 178 181 180 173 171 181 184 182 173 159 161 170 177 186 183 190 197 197 202 205 207 202 197 195 203 223 242 249 226 204 206 228 204 139 104 138
215 226 242 245 244 248 258 282 298 277 311 304 356 118 239 249 201 207 186 205 29 106 125 136 141 140 144 142 156 166 165 166 168 175 175 176 176 171 173 176 175 167 173 191 193 182 185 194 189 182 183 185 185 182 182 180 177 177 176 179 179 180 184 181 172 171 181 184 182 172 157 159 169 178 186 189 192 195 198 204 216 223 223 218 212 227 233 289 306 287 281 120 274 185 130 68 143
220 228 237 247 254 253 265 305 301 269 251 250 281 279 273 89 252 265 178 188 220 153 137 144 149 149 156 157 168 171 172 172 174 180 177 178 177 173 177 180 180 172 178 190 189 181 182 191 190 185 184 186 183 177 181 183 179 176 172 182 183 181 185 180 173 173 177 176 178 173 162 163 172 185 190 191 191 195 201 206 221 229 237 248 239 258 269 304 315 299 300 317 321 223 167 263 234
231 239 237 244 253 262 280 299 301 282 290 257 257 265 296 35 252 258 215 197 171 165 136 134 148 154 158 165 175 175 179 178 178 183 182 183 178 178 178 175 180 178 183 187 185 186 184 184 186 188 186 183 177 174 184 184 178 174 174 182 180 178 181 177 171 171 171 170 175 175 173 173 177 190 191 192 196 199 205 206 218 225 225 238 237 239 242 256 273 282 285 278 280 253 196 206 228
231 242 241 244 250 255 266 277 304 192 253 259 259 260 282 290 255 238 239 202 122 132 128 131 148 160 162 165 175 179 184 183 185 186 184 187 179 179 182 174 177 177 179 184 187 189 185 182 182 181 178 177 172 171 182 181 176 173 176 179 172 171 169 165 166 168 171 170 176 179 181 182 176 180 183 192 198 198 209 212 213 218 214 217 222 221 225 231 239 275 290 284 268 248 239 218 204
230 241 246 251 252 250 249 252 253 229 237 247 257 264 259 252 257 245 242 170 120 134 141 146 153 158 163 163 174 182 188 188 189 191 185 187 182 178 184 182 178 174 182 192 188 182 181 183 180 175 172 174 169 166 175 177 173 170 172 170 161 161 155 159 169 169 175 178 185 192 193 190 180 176 180 195 203 200 209 214 213 216 212 211 216 218 227 236 244 266 286 293 268 245 256 248 226
230 239 244 249 253 258 253 244 245 242 244 238 236 252 247 246 257 261 253 184 136 150 151 153 156 157 163 162 174 183 190 194 192 193 188 186 188 184 184 187 183 180 193 201 183 172 178 173 170 174 170 170 166 164 170 171 169 166 165 162 156 156 156 166 173 168 180 190 191 201 205 197 189 186 186 194 204 208 210 213 219 225 223 218 220 224 232 238 246 254 254 260 248 237 241 245 254
242 242 241 243 251 258 254 244 245 244 241 238 231 241 235 239 248 236 245 219 164 167 153 148 155 152 159 165 173 184 192 201 198 193 188 186 193 193 188 184 182 188 196 188 165 164 177 168 160 167 163 161 162 160 164 164 162 160 161 164 158 154 155 164 170 170 181 188 190 200 209 201 196 206 204 199 207 222 224 221 226 228 224 220 222 230 238 240 244 252 248 240 230 228 233 234 236
251 252 251 246 250 252 246 234 235 239 233 228 230 244 233 233 239 209 238 224 162 181 159 144 154 152 156 166 169 186 196 202 202 195 192 191 194 195 191 182 179 187 182 162 156 161 177 173 158 161 157 154 156 152 150 154 155 157 164 165 155 154 159 164 171 180 186 193 198 195 194 195 197 205 204 200 206 217 224 225 231 228 221 219 225 234 242 242 243 249 244 238 234 231 233 230 218
254 256 256 251 251 249 244 230 227 233 225 219 220 242 235 225 234 215 234 229 173 193 177 150 158 156 159 168 172 190 195 202 202 198 199 198 199 196 194 187 177 178 171 159 157 161 171 169 156 162 162 154 154 150 143 147 151 152 162 162 156 165 167 167 176 186 191 196 198 186 179 189 199 203 195 191 197 201 218 227 226 224 223 225 230 235 241 246 250 249 237 227 231 239 238 237 239
254 251 250 254 256 247 239 228 227 232 227 216 203 227 237 225 232 219 231 232 184 193 199 171 164 157 159 169 183 200 194 201 204 203 207 203 200 195 196 192 175 174 170 156 156 160 163 164 154 156 159 153 155 158 150 146 147 144 158 165 164 173 169 174 187 186 186 185 185 182 179 187 200 207 199 194 194 199 219 223 209 213 225 227 228 231 236 246 253 249 235 226 226 236 240 242 245
245 242 241 244 251 250 236 222 218 227 223 210 203 224 233 225 224 217 226 221 178 195 203 188 179 164 164 170 182 201 196 202 209 209 211 206 202 198 199 191 175 173 158 145 153 158 160 163 151 141 144 148 154 162 153 147 152 151 162 169 163 176 175 178 187 179 172 170 170 169 168 176 187 195 202 201 197 203 213 211 206 210 217 220 223 228 232 241 245 242 235 230 231 232 237 242 241
234 235 239 232 237 249 242 224 208 215 215 203 210 230 230 239 227 213 216 205 188 204 199 199 197 164 166 182 185 197 201 206 212 211 212 209 202 201 200 190 176 156 133 141 153 153 158 161 149 141 142 144 148 154 149 151 157 151 160 170 171 182 172 165 173 160 145 149 148 145 147 157 163 166 180 191 190 194 198 204 208 206 205 213 223 228 228 232 234 237 239 237 246 240 236 241 240
222 224 238 236 233 239 246 234 204 204 212 202 208 226 231 238 239 228 217 203 194 202 202 207 205 166 166 186 192 199 207 208 212 213 213 209 202 206 201 181 153 128 126 149 153 152 166 164 150 147 146 142 144 151 151 157 160 147 154 168 178 179 157 148 151 141 135 132 129 130 132 131 134 136 148 169 178 179 185 197 203 200 203 208 215 220 221 226 227 240 253 250 254 242 244 255 238
219 218 233 240 240 234 236 241 203 192 208 205 196 215 248 234 256 281 224 192 185 199 205 203 206 176 161 180 194 196 207 210 214 215 211 209 197 174 131 120 114 120 138 152 143 150 168 166 152 146 144 142 141 144 142 151 156 146 151 162 171 161 139 135 136 133 130 124 121 117 115 116 116 113 120 137 148 162 175 187 196 199 205 206 201 208 221 229 229 251 265 259 266 255 247 260 239
219 212 220 231 245 240 234 245 200 181 201 209 192 200 243 244 254 304 197 172 178 194 206 202 196 169 155 180 199 194 207 209 214 217 210 201 169 109 86 94 106 127 149 137 130 145 163 162 157 146 144 146 141 140 141 149 152 139 137 136 126 120 117 115 111 109 107 105 110 108 104 108 111 106 106 120 128 143 168 180 197 199 199 197 186 198 220 230 234 254 259 257 265 262 245 247 241
244 255 243 221 234 240 235 247 197 174 190 206 209 203 221 244 242 237 135 164 199 200 211 199 183 179 169 184 204 203 214 211 212 212 195 167 141 99 88 99 109 136 152 133 130 153 164 161 161 149 145 147 144 148 150 151 150 131 118 109 104 108 103 96 87 83 82 74 80 98 105 108 112 115 118 127 126 131 149 149 171 181 178 180 170 177 195 207 240 256 265 264 251 240 234 238 242
275 299 276 227 223 240 232 241 199 173 190 202 211 217 212 227 237 217 170 184 219 215 217 200 187 203 196 194 204 210 221 220 203 163 130 118 114 97 104 111 118 152 155 140 142 162 160 155 161 156 149 150 146 151 150 146 140 118 108 111 121 121 98 102 108 112 111 103 101 100 98 101 111 115 113 116 114 118 125 118 126 136 132 136 128 117 127 165 317 0 343 260 229 213 212 218 240
278 294 288 244 216 236 230 236 206 170 190 200 196 222 227 221 229 224 187 182 206 211 213 218 207 210 210 202 202 212 216 178 85 83 88 101 114 111 109 114 140 171 158 142 146 159 155 149 160 161 156 154 149 150 146 140 128 110 109 123 122 94 86 106 124 131 137 137 135 122 103 101 102 95 88 93 101 111 113 104 103 106 106 111 108 108 107 92 89 64 48 60 100 175 198 212 241
276 273 280 275 230 231 226 230 209 158 183 206 190 215 235 235 229 224 214 191 187 195 209 231 223 212 213 208 210 215 183 96 82 82 91 118 128 125 114 117 144 172 160 144 144 154 154 152 162 166 159 154 153 151 144 139 127 114 120 133 117 109 121 132 124 118 123 120 124 124 112 100 79 71 76 89 103 108 103 100 104 113 116 110 102 103 85 42 61 59 39 55 65 103 136 164 262
266 261 256 275 261 241 219 187 146 127 165 228 223 230 236 242 234 232 242 210 171 192 212 230 226 207 214 224 223 182 100 87 95 105 132 143 134 130 123 126 150 170 163 150 147 155 162 164 166 167 162 157 155 152 150 150 138 132 144 146 139 157 166 153 128 112 111 110 114 114 110 106 100 98 100 107 116 111 107 102 101 119 127 112 96 96 100 70 51 35 12 43 48 42 93 106 67
247 251 251 262 264 254 230 162 148 143 169 200 237 254 244 234 226 233 239 191 162 203 215 227 223 204 215 218 101 92 89 90 98 121 161 150 134 135 130 129 148 158 160 157 153 157 166 172 169 165 165 163 160 157 160 160 152 151 158 158 163 176 167 143 125 112 115 124 119 110 108 112 117 115 107 87 89 105 115 110 96 102 116 111 105 101 102 100 98 86 55 70 61 44 92 117 100
249 239 243 258 268 271 259 180 162 191 209 194 208 241 248 226 228 233 214 159 192 217 215 230 223 201 208 154 98 95 98 98 95 148 159 138 134 146 140 141 152 151 156 159 157 159 168 175 173 168 169 168 163 162 166 165 159 156 159 170 174 165 142 134 131 123 126 125 111 113 120 119 124 135 138 131 114 108 107 102 89 69 71 79 91 101 93 88 102 125 103 98 90 72 86 117 131
252 233 226 244 261 273 276 244 189 213 231 208 204 227 247 225 227 227 196 183 206 211 214 231 221 205 198 126 101 100 110 123 154 171 147 136 146 158 147 151 157 152 155 160 159 160 165 170 171 170 172 171 166 166 167 165 160 159 160 170 163 144 139 144 142 142 148 144 133 141 147 136 141 157 156 151 134 125 118 115 112 90 61 46 60 88 105 106 90 82 101 108 98 90 93 103 119
247 242 222 223 238 255 265 267 254 226 225 229 215 222 241 237 224 212 201 202 200 202 213 226 225 203 124 101 100 98 107 151 181 165 150 148 155 158 149 152 162 157 157 161 163 162 161 164 168 170 174 172 166 163 159 155 156 160 154 146 140 146 166 164 156 160 163 156 143 138 135 127 128 128 119 108 104 117 126 130 129 117 103 92 89 98 120 123 115 111 114 111 104 103 100 97 102
238 252 253 228 222 234 242 254 258 231 229 240 228 225 238 248 221 201 212 212 197 199 198 214 229 123 90 92 104 114 142 163 164 157 154 154 158 157 148 155 168 162 160 166 168 167 162 163 170 173 174 170 164 160 157 154 153 150 143 139 152 183 190 174 164 167 158 141 132 132 136 136 135 129 118 106 94 95 112 132 135 126 122 125 118 110 108 104 103 104 110 114 108 103 99 95 95
237 248 272 268 234 227 229 241 242 223 237 242 235 232 248 257 214 196 218 209 197 206 187 196 214 121 106 113 124 144 171 163 146 144 140 152 164 156 148 159 170 168 168 171 173 173 168 166 171 171 171 170 166 162 162 161 154 147 144 154 185 202 190 174 168 165 151 144 149 156 157 151 145 140 133 123 113 106 105 123 136 133 126 117 101 92 87 89 91 81 86 106 107 102 102 100 93
232 234 244 252 244 227 222 235 237 224 232 239 240 225 233 262 217 190 223 201 187 205 172 183 194 129 123 139 145 159 172 152 143 141 134 147 162 156 156 163 172 174 172 174 177 177 172 170 169 167 168 171 171 165 164 164 156 151 151 161 195 202 181 175 175 165 158 158 158 155 151 151 153 152 146 141 137 130 119 118 129 132 125 115 105 95 86 89 98 94 93 104 114 114 114 114 108
217 225 232 234 229 223 228 225 222 236 228 233 241 218 204 241 233 169 7 196 173 138 114 160 161 122 126 143 149 158 161 151 152 147 140 147 152 157 162 167 174 176 173 176 180 177 175 174 171 169 168 170 171 168 170 170 160 159 158 164 192 194 182 185 179 167 162 156 150 151 155 158 154 149 147 139 131 134 132 127 129 133 130 123 118 108 96 93 104 108 105 105 113 117 118 126 126
212 209 224 233 218 210 231 223 214 238 233 227 241 230 212 229 187 92 57 34 123 135 134 168 161 133 136 144 148 157 159 155 155 150 149 152 152 158 165 169 172 174 176 178 180 179 180 179 178 176 171 170 172 172 176 172 162 163 160 167 189 190 188 190 177 167 163 154 155 163 165 159 150 150 152 143 139 145 147 142 138 135 133 130 126 117 102 91 97 107 108 107 107 104 103 112 123
224 222 220 223 219 212 224 228 222 232 231 224 227 229 215 175 114 111 105 68 59 87 106 155 169 151 143 142 148 158 158 153 150 149 151 152 155 160 167 171 170 173 177 177 180 182 182 182 184 181 174 172 175 178 178 169 163 164 161 173 189 188 188 187 176 169 162 159 165 165 160 157 159 164 161 158 167 174 167 155 148 140 133 130 127 123 116 110 109 110 108 106 105 101 98 100 108
213 227 237 230 222 227 228 230 240 244 247 239 222 212 157 160 159 111 112 94 75 76 77 89 107 109 117 125 134 143 146 144 145 150 153 154 158 163 170 176 174 174 175 177 181 183 182 183 184 182 179 175 177 182 178 170 167 164 165 179 186 185 185 182 176 168 163 167 167 159 159 162 167 173 172 178 185 179 164 149 141 138 133 131 127 128 132 129 119 111 107 105 105 104 104 100 100
209 215 232 237 210 203 239 233 250 311 306 290 235 242 77 138 173 92 101 95 80 77 79 84 86 88 97 105 118 136 147 151 157 163 163 164 167 168 173 176 172 174 177 180 183 183 183 184 182 181 180 178 180 182 177 173 170 166 172 182 181 180 183 179 175 170 169 174 166 158 164 168 173 175 173 178 169 153 149 138 130 125 120 122 120 117 122 117 109 107 106 105 103 103 104 101 101
236 224 226 230 205 196 207 219 203 137 258 253 173 106 80 137 160 142 136 117 84 66 68 79 82 90 93 94 112 135 152 160 169 170 161 167 175 171 172 172 169 173 178 182 186 185 184 185 181 178 178 179 179 177 176 176 172 169 177 182 177 174 178 181 179 176 175 173 165 165 169 170 176 170 160 162 155 146 141 129 121 117 111 109 109 107 105 104 101 99 97 97 96 96 98 98 99
207 235 257 281 229 216 209 182 180 256 251 233 179 178 185 188 192 164 154 127 92 78 78 87 90 97 96 101 119 130 149 166 175 174 162 176 185 176 171 170 169 172 175 178 185 187 185 186 184 179 179 180 175 174 179 180 174 173 176 178 175 170 175 187 186 181 181 175 167 168 172 173 172 163 158 158 152 146 141 132 124 118 113 110 108 105 103 100 98 97 97 96 94 92 92 93 91
224 230 302 320 264 235 225 191 180 223 247 248 209 202 200 211 202 155 152 137 108 101 103 107 108 114 120 132 137 137 140 144 159 172 168 178 187 180 169 166 165 170 171 173 179 182 182 186 186 180 178 181 179 178 181 179 176 178 177 176 176 172 177 190 191 187 186 181 172 169 173 178 174 166 165 162 156 154 147 139 133 126 122 119 114 111 107 102 99 98 98 95 95 94 92 93 91
232 225 231 234 227 245 247 238 244 225 227 242 228 214 181 31 326 182 156 140 130 129 128 125 124 126 129 135 134 130 127 132 150 170 172 174 176 169 164 162 162 168 172 173 173 173 176 181 183 178 175 180 182 181 179 178 179 182 180 177 178 180 185 192 191 188 188 185 180 177 177 178 176 173 172 167 163 162 155 150 147 141 139 134 129 128 122 115 111 106 104 101 96 90 88 92 89
230 225 224 218 219 242 232 210 249 254 245 248 245 229 80 35 341 207 143 134 138 142 142 144 144 144 148 149 146 142 142 151 162 167 165 162 157 153 156 157 156 159 165 170 171 169 171 175 177 176 176 178 176 173 175 179 181 184 183 179 180 185 189 195 195 188 186 186 186 186 185 182 179 178 177 172 169 169 165 164 163 160 161 155 147 149 142 136 140 131 123 113 94 81 72 82 91
241 231 228 228 222 222 228 222 229 256 263 258 255 220 76 34 8 74 117 131 137 139 142 143 145 152 161 164 163 164 161 158 158 155 150 148 144 142 145 143 140 141 145 153 162 164 166 170 173 176 182 186 183 177 179 182 185 187 187 184 184 184 186 193 197 191 187 189 189 188 190 190 185 182 180 176 173 173 172 174 175 177 181 178 174 179 166 167 192 188 176 143 122 126 143 88 98